Weather observations for the past three days for
Los Angeles, Los Angeles International Airport
Imperial (Metric)
Date Time (pdt) Wind (mph) Vis. (mi.) Weather Sky Cond. Temperature (ºF) Relative Humidity Wind Chill (°F) Heat Index (°F) Pressure Precipitation (in)
Air Dwpt 6 hour altimeter (in) sea level (mb) 1 hr 3 hr 6 hr
Max. Min.
14 03:53 SE 6 10.00 Overcast BKN009 OVC012 61 55.9 84% 29.95 1014.1
14 02:53 W 3 10.00 Overcast OVC009 60.1 55.9 86% 29.96 1014.3
14 01:53 Vrbl 5 10.00 Overcast OVC008 60.1 57 90% 29.97 1014.6
14 00:53 SW 6 10.00 Overcast OVC008 60.1 55.9 86% 29.98 1015.1
13 23:53 W 10 10.00 Overcast OVC008 60.1 57 90% 29.99 1015.3
13 22:53 W 13 10.00 Overcast OVC009 61 57 66 60.1 87% 29.99 1015.5
13 21:53 W 10 10.00 Mostly Cloudy BKN010 61 55.9 84% 29.98 1015.1
13 20:53 W 13 10.00 Overcast OVC009 61 57 87% 29.98 1015.0
13 19:53 W 15 10.00 Overcast OVC011 62.1 55.9 80% 29.97 1014.9
13 18:53 W 18 10.00 Mostly Cloudy BKN010 63 57 81% 29.97 1014.9
13 17:53 W 18 10.00 Partly Cloudy SCT013 64 55.9 75% 29.97 1014.6
13 16:53 W 16 10.00 Partly Cloudy FEW015 FEW030 SCT250 64.9 55.9 69.1 64 73% 29.98 1015.0
13 15:53 W 12 10.00 A Few Clouds FEW030 FEW250 66.9 55.9 68% 29.97 1014.9
13 14:53 W 15 G 22 10.00 A Few Clouds FEW015 68 55 63% 29.99 1015.6
13 13:53 W 14 10.00 A Few Clouds FEW015 68 55 63% 30 1015.8
13 12:53 W 10 10.00 Partly Cloudy FEW012 SCT019 68 55.9 65% 30 1015.9
13 11:53 W 7 10.00 Mostly Cloudy FEW011 SCT019 BKN030 66 55.9 70% 30 1015.9
13 10:53 W 10 10.00 Mostly Cloudy FEW013 BKN021 64.9 55.9 64.9 59 73% 30 1015.8
13 09:53 W 8 7.00 Overcast OVC016 62.1 57 84% 30 1015.7
13 08:53 SW 7 6.00 Fog/Mist OVC007 60.1 57 90% 30 1015.6
13 07:53 W 5 5.00 Fog/Mist OVC006 59 57 93% 29.98 1015.0
13 06:53 W 6 5.00 Light Drizzle Fog/Mist OVC008 60.1 57 90% 29.97 1014.8
13 05:53 W 5 5.00 Light Drizzle Fog/Mist OVC008 60.1 57 90% 29.97 1014.6
13 04:53 W 6 9.00 Overcast OVC008 60.1 55.9 61 60.1 86% 29.95 1014.1
13 03:53 W 6 10.00 Overcast OVC008 60.1 55.9 86% 29.94 1013.7
13 02:53 W 3 10.00 Overcast OVC008 60.1 55.9 86% 29.93 1013.5
13 01:53 W 6 10.00 Overcast OVC008 60.1 55.9 86% 29.94 1013.7
13 00:53 W 8 10.00 Overcast OVC008 60.1 55.9 86% 29.95 1013.8
12 23:53 W 8 10.00 Overcast OVC008 60.1 55.9 86% 29.95 1014.1
12 22:53 W 13 G 21 10.00 Overcast OVC008 61 57 68 60.1 87% 29.96 1014.3
12 21:53 W 12 10.00 Overcast OVC008 60.1 57 90% 29.95 1013.9
12 20:53 W 13 10.00 Overcast OVC007 61 57 87% 29.93 1013.3
12 19:53 W 13 10.00 Overcast OVC007 62.1 57 84% 29.93 1013.2
12 18:53 W 14 10.00 Overcast OVC009 62.1 57 84% 29.92 1013.1
12 17:53 W 14 10.00 Mostly Cloudy BKN011 64.9 57.9 78% 29.93 1013.3
12 16:53 W 14 10.00 A Few Clouds FEW012 68 57.9 70 64 70% 29.94 1013.6
12 15:53 W 13 10.00 A Few Clouds FEW010 FEW027 68 57.9 70% 29.95 1014.0
12 14:53 W 14 10.00 A Few Clouds FEW027 68 57.9 70% 29.96 1014.3
12 13:53 W 10 10.00 Partly Cloudy FEW015 SCT027 69.1 59 70% 29.97 1014.8
12 12:53 W 9 9.00 Partly Cloudy FEW012 SCT017 SCT025 69.1 59 70% 29.99 1015.3
12 11:53 W 10 9.00 Overcast FEW009 BKN014 OVC019 66 59 78% 30 1015.9
12 10:53 W 7 9.00 Overcast OVC012 64 59 64 62.1 84% 30.01 1015.9
12 09:53 W 8 8.00 Overcast OVC011 63 59 87% 30 1015.8
12 08:53 W 6 8.00 Overcast OVC012 63 59 87% 30 1015.6
12 07:53 W 5 7.00 Overcast FEW009 OVC012 63 59 87% 29.98 1015.1
12 06:53 Calm 6.00 Fog/Mist SCT009 OVC012 63 59 87% 29.96 1014.5
12 05:53 SE 3 5.00 Light Drizzle Fog/Mist FEW004 SCT008 OVC011 62.1 59 90% 29.95 1013.9
12 04:53 Calm 7.00 Overcast FEW004 FEW008 OVC011 62.1 57.9 63 61 86% 29.93 1013.5
12 03:53 SW 5 9.00 Overcast FEW005 OVC011 62.1 57.9 86% 29.93 1013.3
12 02:53 Calm 10.00 Overcast FEW008 OVC011 63 57.9 84% 29.92 1013.1
12 01:53 Calm 10.00 Overcast FEW008 OVC010 62.1 57.9 86% 29.92 1013.0
12 00:53 S 5 10.00 Overcast FEW008 OVC011 62.1 57 84% 29.92 1013.1
11 23:53 SW 5 10.00 Overcast FEW008 OVC011 62.1 57 84% 29.92 1013.1
11 22:53 SW 3 10.00 Overcast OVC011 62.1 57 63 60.1 84% 29.93 1013.4
11 21:53 NW 5 10.00 Overcast OVC011 61 55.9 84% 29.93 1013.3
11 20:53 W 8 10.00 Overcast OVC012 61 55.9 84% 29.91 1012.7
11 19:53 W 7 10.00 Overcast OVC013 61 55.9 84% 29.9 1012.3
11 18:53 SW 6 10.00 Overcast OVC011 61 55.9 84% 29.89 1011.9
11 17:53 SW 9 G 21 10.00 Overcast OVC011 62.1 55.9 80% 29.88 1011.8
11 16:53 W 13 10.00 Overcast OVC011 63 57 64.9 62.1 81% 29.89 1012.0
11 15:53 W 10 10.00 Overcast OVC012 64.9 57 76% 29.9 1012.2
11 14:53 SW 10 10.00 Overcast OVC011 64 57 78% 29.91 1012.5
11 13:53 W 8 8.00 Overcast OVC010 63 57 81% 29.92 1013.0
11 12:53 W 8 8.00 Overcast OVC008 63 57 81% 29.93 1013.5
11 11:53 SW 8 7.00 Overcast OVC006 62.1 57.9 86% 29.94 1013.8
11 10:53 SW 8 6.00 Overcast with Haze OVC011 63 57.9 63 57.9 84% 29.93 1013.5
11 09:53 W 8 5.00 Overcast with Haze OVC012 62.1 57 84% 29.92 1013.2
11 08:53 SE 5 5.00 Fog/Mist OVC009 61 57 87% 29.92 1013.1
11 07:53 SW 3 3.00 Fog/Mist OVC008 60.1 57 90% 29.91 1012.8
11 06:53 W 6 3.00 Fog/Mist OVC007 60.1 57 90% 29.91 1012.7
11 05:53 W 3 3.00 Fog/Mist FEW002 OVC006 59 55.9 90% 29.9 1012.3
11 04:53 Vrbl 5 3.00 Fog/Mist FEW002 OVC005 57.9 55.9 59 57.9 93% 29.89 1012.0
Date Time (pdt) Wind (mph) Vis. (mi.) Weather Sky Cond. Air Dwpt Max. Min. Relative Humidity Wind Chill (°F) Heat Index (°F) altimeter (in) sea level (mb) 1 hr 3 hr 6 hr
6 hour
Temperature (ºF) Pressure Precipitation (in)